FW7499 Weather Reports


time (UTC)temp
F
wind
direction
speed
knots
gust
knots
rain 1hr
in
rain 24hr
in
rain mn
in
humidity
%
barometer
mb
20260504044007 56 277 0.0 0.0 0.00 0.00 0.00 63 1006.9
20260504043507 57 277 0.0 0.0 0.00 0.00 0.00 61 1007.0
20260504043025 57 277 0.0 0.0 0.00 0.00 0.00 60 1007.0
20260504042504 58 277 0.0 0.0 0.00 0.00 0.00 59 1007.0
20260504042007 58 277 0.0 0.0 0.00 0.00 0.00 57 1007.0
20260504041519 58 277 0.0 0.0 0.00 0.00 0.00 58 1007.1
20260504041007 59 277 0.0 0.0 0.00 0.00 0.00 57 1007.1
20260504040505 59 277 0.0 0.0 0.00 0.00 0.00 55 1007.2
20260504040015 59 277 0.0 0.0 0.00 0.00 0.00 56 1007.3
20260504035511 59 277 0.0 0.0 0.00 0.00 0.00 56 1007.4
20260504035010 58 277 0.0 0.0 0.00 0.00 0.00 58 1007.4
20260504034516 58 277 0.0 0.0 0.00 0.00 0.00 58 1007.4
20260504034010 58 277 0.0 0.0 0.00 0.00 0.00 59 1007.5
20260504033506 59 277 0.0 0.0 0.00 0.00 0.00 58 1007.6
20260504033022 59 277 0.0 0.0 0.00 0.00 0.00 58 1007.6
20260504032506 59 277 0.0 0.0 0.00 0.00 0.00 58 1007.5
20260504032008 60 277 0.0 0.0 0.00 0.00 0.00 56 1007.5
20260504031506 60 277 0.0 0.0 0.00 0.00 0.00 54 1007.6
20260504031002 61 277 0.0 0.0 0.00 0.00 0.00 53 1007.6
20260504030506 60 277 0.0 0.0 0.00 0.00 0.00 53 1007.6
20260504030007 61 277 0.0 0.0 0.00 0.00 0.00 54 1007.6
20260504025504 61 277 0.0 0.0 0.00 0.00 0.00 51 1007.7
20260504025005 62 277 0.0 0.0 0.00 0.00 0.00 52 1007.7
20260504024507 63 277 0.0 0.0 0.00 0.00 0.00 46 1007.7
20260504024006 64 277 0.0 0.0 0.00 0.00 0.00 45 1007.7
20260504023503 64 277 0.0 0.0 0.00 0.00 0.00 44 1007.8
20260504023003 64 277 0.0 0.0 0.00 0.00 0.00 44 1007.8
20260504022503 64 277 0.0 0.0 0.00 0.00 0.00 45 1007.8
20260504022004 64 277 0.0 0.0 0.00 0.00 0.00 44 1007.8
20260504021504 64 277 0.0 0.0 0.00 0.00 0.00 43 1007.9
20260504021009 65 277 0.0 0.0 0.00 0.00 0.00 42 1007.8
20260504020503 66 277 0.0 0.0 0.00 0.00 0.00 41 1007.9
20260504020007 66 277 0.0 0.0 0.00 0.00 0.00 41 1008.0
20260504015503 66 277 0.0 0.0 0.00 0.00 0.00 40 1008.0
20260504015003 66 277 0.0 0.0 0.00 0.00 0.00 40 1008.0
20260504014519 67 277 0.0 0.0 0.00 0.00 0.00 40 1008.1
20260504014003 67 277 0.0 0.0 0.00 0.00 0.00 40 1008.0
20260504013504 67 277 0.0 0.0 0.00 0.00 0.00 40 1008.0
20260504013015 67 277 0.0 0.0 0.00 0.00 0.00 39 1008.0
20260504012505 68 277 0.0 0.9 0.00 0.00 0.00 38 1008.0
20260504012003 68 277 0.0 0.9 0.00 0.00 0.00 38 1008.0
20260504011510 69 277 0.0 0.9 0.00 0.00 0.00 38 1008.0
20260504011004 69 268 0.0 1.7 0.00 0.00 0.00 38 1008.0
20260504010505 69 269 0.0 3.5 0.00 0.00 0.00 37 1008.1
20260504010006 70 271 0.0 3.5 0.00 0.00 0.00 37 1008.2
20260504005503 70 278 0.0 2.6 0.00 0.00 0.00 37 1008.2
20260504005003 70 281 0.0 2.6 0.00 0.00 0.00 36 1008.3
20260504004507 70 294 0.0 2.6 0.00 0.00 0.00 35 1008.3
20260504004005 71 303 0.0 2.6 0.00 0.00 0.00 36 1008.3
20260504003507 71 303 0.9 2.6 0.00 0.00 0.00 36 1008.3
20260504003004 71 274 0.0 2.6 0.00 0.00 0.00 34 1008.3
20260504002504 71 274 0.0 2.6 0.00 0.00 0.00 36 1008.3
20260504002006 71 327 0.0 3.5 0.00 0.00 0.00 36 1008.4
20260504001521 71 327 0.0 3.5 0.00 0.00 0.00 37 1008.5
20260504001003 72 310 0.0 3.5 0.00 0.00 0.00 36 1008.5
20260504000504 72 58 0.0 2.6 0.00 0.00 0.00 35 1008.5
20260504000037 72 265 0.0 2.6 0.00 0.00 0.00 33 1008.6
20260503235505 72 263 0.0 3.5 0.00 0.00 0.00 36 1008.6
20260503235003 73 263 0.0 6.1 0.00 0.00 0.00 34 1008.6
20260503234510 73 284 0.9 6.1 0.00 0.00 0.00 33 1008.6
20260503234004 73 265 0.9 5.2 0.00 0.00 0.00 33 1008.7
20260503233502 73 311 0.0 5.2 0.00 0.00 0.00 35 1008.7
20260503233019 74 335 1.7 3.5 0.00 0.00 0.00 35 1008.7
20260503232503 74 307 0.0 3.5 0.00 0.00 0.00 33 1008.7
20260503232007 74 249 0.0 3.5 0.00 0.00 0.00 32 1008.8
20260503231512 74 259 0.0 3.5 0.00 0.00 0.00 31 1008.8
20260503231006 75 260 0.9 3.5 0.00 0.00 0.00 34 1008.8
20260503230506 75 259 0.0 4.3 0.00 0.00 0.00 31 1008.8
20260503230008 75 273 0.9 6.1 0.00 0.00 0.00 32 1008.9
20260503225506 75 298 0.9 6.1 0.00 0.00 0.00 32 1008.9
20260503225007 75 325 1.7 6.1 0.00 0.00 0.00 33 1008.8
20260503224507 76 344 2.6 6.1 0.00 0.00 0.00 33 1008.8
20260503224007 76 333 0.9 4.3 0.00 0.00 0.00 35 1008.8
20260503223504 75 355 0.9 2.6 0.00 0.00 0.00 31 1008.8
20260503223010 76 351 0.0 1.7 0.00 0.00 0.00 32 1008.9
20260503222502 76 348 0.9 3.5 0.00 0.00 0.00 32 1008.9
20260503222006 76 348 0.0 4.3 0.00 0.00 0.00 31 1009.0
20260503221514 76 328 1.7 4.3 0.00 0.00 0.00 33 1009.0
20260503221006 76 347 0.0 3.5 0.00 0.00 0.00 32 1009.0
20260503220504 75 343 1.7 3.5 0.00 0.00 0.00 33 1008.9
20260503220021 75 320 1.7 2.6 0.00 0.00 0.00 33 1009.0
20260503215506 75 23 0.0 4.3 0.00 0.00 0.00 34 1009.0
20260503215007 75 345 0.0 4.3 0.00 0.00 0.00 33 1009.1
20260503214523 75 239 0.9 3.5 0.00 0.00 0.00 32 1009.3
20260503214003 77 322 0.9 5.2 0.00 0.00 0.00 31 1009.3
20260503213512 75 360 0.9 5.2 0.00 0.00 0.00 33 1009.4
20260503213010 75 246 1.7 7.8 0.00 0.00 0.00 34 1009.5
20260503212508 76 309 1.7 7.8 0.00 0.00 0.00 31 1009.6
20260503212005 76 309 2.6 7.8 0.00 0.00 0.00 33 1009.7
20260503211513 76 289 0.9 5.2 0.00 0.00 0.00 36 1009.7
20260503211007 76 227 1.7 7.0 0.00 0.00 0.00 30 1009.8
20260503210510 75 319 0.9 8.7 0.00 0.00 0.00 34 1009.9
20260503210035 75 300 4.3 9.6 0.00 0.00 0.00 33 1010.1
20260503205506 75 258 2.6 9.6 0.00 0.00 0.00 34 1010.1
20260503205007 75 252 0.9 7.0 0.00 0.00 0.00 36 1010.1
20260503204512 74 252 2.6 7.0 0.00 0.00 0.00 33 1010.2
20260503204008 74 305 0.9 6.1 0.00 0.00 0.00 30 1010.3
20260503203503 74 21 0.9 4.3 0.00 0.00 0.00 35 1010.4
20260503203020 75 107 0.0 4.3 0.00 0.00 0.00 34 1010.4
20260503202508 75 355 1.7 3.5 0.00 0.00 0.00 35 1010.5
20260503202004 74 232 0.9 3.5 0.00 0.00 0.00 37 1010.7
20260503201522 76 297 0.9 3.5 0.00 0.00 0.00 33 1010.7
20260503201005 75 350 0.9 7.0 0.00 0.00 0.00 37 1010.7
20260503200507 75 315 1.7 7.0 0.00 0.00 0.00 38 1010.8
20260503200018 76 5 3.5 7.0 0.00 0.00 0.00 35 1010.8
20260503195508 74 274 0.0 7.0 0.00 0.00 0.00 34 1010.7
20260503195006 74 88 1.7 7.0 0.00 0.00 0.00 34 1010.8
20260503194522 74 309 1.7 5.2 0.00 0.00 0.00 37 1010.8
20260503194004 73 332 0.9 7.0 0.00 0.00 0.00 39 1010.8
20260503193509 72 314 2.6 7.8 0.00 0.00 0.00 36 1010.8
20260503193022 72 311 0.9 7.8 0.00 0.00 0.00 34 1010.8
20260503192506 73 330 2.6 7.0 0.00 0.00 0.00 37 1010.9
20260503192008 73 350 1.7 7.8 0.00 0.00 0.00 35 1011.0
20260503191519 73 285 1.7 9.6 0.00 0.00 0.00 33 1011.0
20260503191009 73 323 6.1 9.6 0.00 0.00 0.00 34 1011.1
20260503190507 73 355 1.7 10.4 0.00 0.00 0.00 36 1011.1
20260503190017 73 331 5.2 10.4 0.00 0.00 0.00 36 1011.2
20260503185507 74 360 2.6 7.8 0.00 0.00 0.00 36 1011.1
20260503185009 74 346 2.6 7.8 0.00 0.00 0.00 37 1011.1
20260503184524 74 320 1.7 5.2 0.00 0.00 0.00 37 1011.1
20260503184011 73 344 1.7 7.8 0.00 0.00 0.00 34 1011.2
20260503183508 73 337 0.9 8.7 0.00 0.00 0.00 38 1011.3
20260503183023 73 314 3.5 8.7 0.00 0.00 0.00 38 1011.4
20260503182507 73 346 0.0 7.8 0.00 0.00 0.00 36 1011.4
20260503182007 73 294 2.6 7.0 0.00 0.00 0.00 38 1011.5
20260503181515 72 304 0.9 7.8 0.00 0.00 0.00 41 1011.4
20260503181008 72 30 1.7 7.8 0.00 0.00 0.00 34 1011.6
20260503180510 73 350 1.7 9.6 0.00 0.00 0.00 37 1011.7
20260503180026 72 336 2.6 10.4 0.00 0.00 0.00 38 1011.6
20260503175506 72 336 3.5 10.4 0.00 0.00 0.00 40 1011.8
20260503175008 72 306 2.6 9.6 0.00 0.00 0.00 38 1011.7
20260503174525 70 334 3.5 8.7 0.00 0.00 0.00 39 1011.7
20260503174010 71 315 3.5 8.7 0.00 0.00 0.00 39 1011.8
20260503173508 71 28 2.6 8.7 0.00 0.00 0.00 36 1011.8
20260503173020 71 320 3.5 8.7 0.00 0.00 0.00 36 1011.8
20260503172507 71 80 1.7 7.8 0.00 0.00 0.00 38 1011.8
20260503172010 72 342 2.6 7.8 0.00 0.00 0.00 36 1011.9
20260503171521 71 5 2.6 10.4 0.00 0.00 0.00 40 1011.9
20260503171008 71 329 4.3 10.4 0.00 0.00 0.00 39 1011.9
20260503170511 71 327 2.6 6.1 0.00 0.00 0.00 38 1011.9
20260503151010 62 329 2.6 7.8 0.00 0.00 0.00 51 1011.8
20260503150510 61 347 1.7 7.8 0.00 0.00 0.00 51 1011.8
20260503131006 55 250 2.6 8.7 0.00 0.00 0.00 56 1010.9
20260503130506 54 296 1.7 8.7 0.00 0.00 0.00 59 1010.8
20260503110506 52 331 0.0 3.5 0.00 0.00 0.00 54 1010.8
20260503090504 56 223 0.9 7.8 0.00 0.00 0.00 46 1010.4
20260503081523 54 147 0.0 3.5 0.00 0.00 0.00 47 1010.9
20260503081003 53 71 0.0 3.5 0.00 0.00 0.00 49 1010.9
20260503080507 53 333 0.0 3.5 0.00 0.00 0.00 49 1010.9
20260503072507 54 144 0.9 3.5 0.00 0.00 0.00 47 1011.2
20260503072006 55 163 0.9 5.2 0.00 0.00 0.00 45 1011.2
20260503071528 55 142 0.9 5.2 0.00 0.00 0.00 45 1011.2
20260503071009 55 152 1.7 5.2 0.00 0.00 0.00 45 1011.2
20260503070505 55 234 0.9 4.3 0.00 0.00 0.00 45 1011.3
20260503055008 56 172 0.9 7.0 0.00 0.00 0.00 41 1012.2
20260503054531 56 76 0.9 7.0 0.00 0.00 0.00 42 1012.3
20260503054006 56 263 0.9 6.1 0.00 0.00 0.00 41 1012.2
20260503053507 56 202 0.9 6.1 0.00 0.00 0.00 42 1012.3
20260503053019 56 223 1.7 7.0 0.00 0.00 0.00 42 1012.3
20260503052513 56 80 0.0 7.0 0.00 0.00 0.00 42 1012.2
20260503052009 57 288 1.7 7.0 0.00 0.00 0.00 42 1012.2
20260503051514 56 141 0.0 7.0 0.00 0.00 0.00 42 1012.2
20260503051005 56 202 1.7 7.0 0.00 0.00 0.00 43 1012.3
20260503050505 56 59 0.9 7.0 0.00 0.00 0.00 43 1012.4
20260503050022 56 296 1.7 4.3 0.00 0.00 0.00 44 1012.4
20260503045509 55 259 0.0 2.6 0.00 0.00 0.00 44 1012.4
20260503045013 56 98 0.9 2.6 0.00 0.00 0.00 44 1012.5
20260503044536 55 165 0.0 2.6 0.00 0.00 0.00 44 1012.6